Location: Cadeilhan
(42.8161°N, 0.3161°E)
Time: 06:15:47
(UTC+00:00)

STARLINK-1095 - Pass Details

Date: 18 February 2020
Orbit: 379 x 380 km, 53.0° (Epoch: 09 April)

Event Time Altitude Azimuth Distance (km) Brightness Sun altitude
Exits shadow 04:13:22 12° 96° (E) 1,314 6.3 -29.8°
Drops below altitude 10° 04:13:45 10° 90° (E) 1,412 6.6 -29.7°
Enters shadow 05:11:34 -66° 234° (SW) 12,087 10.4 -19.2°
Maximum altitude 05:47:17 55° 328° (NNW) 473 3.1 -12.6°
